Location: Brastelburg
(48.8308°N, 10.1690°E)
Time: 23:20:04
(UTC+00:00)

Daily predictions for brighter satellites

Satellite Brightness Start Highest point End
(mag) Time Altitude Azimuth Time Altitude Azimuth Time Altitude Azimuth
BREEZE-M DEB (TANK) 4.3 17:01:25 10° SSW 17:05:25 43° SE 17:18:37 10° ENE
Cosmos 1674 3.6 17:16:07 10° NNW 17:19:47 54° W 17:23:24 10° S
Cosmos 1975 3.9 17:21:11 10° SSW 17:25:08 51° WNW 17:29:05 10° N
COSMO-SKYMED 1 2.6 17:21:05 10° NNE 17:25:25 63° E 17:29:43 10° S
Cosmos 2263 Rocket 2.2 17:19:45 10° NNW 17:25:29 78° ENE 17:31:11 10° SSE
Cosmos 1437 Rocket 4.0 17:27:46 10° SE 17:30:28 19° E 17:33:10 10° NE
Spot 1 4.3 17:26:54 10° NNE 17:30:53 41° E 17:34:45 10° S
ASTEX 1 3.4 17:26:22 10° N 17:31:21 65° E 17:36:18 10° S
HJ-1C 4.1 17:29:48 10° SE 17:32:33 29° ENE 17:35:19 10° N
Cosmos 1741 Rocket 4.0 17:27:55 10° SSW 17:33:10 71° ESE 17:38:25 10° NNE
CZ-4C R/B 4.2 17:30:23 10° N 17:34:35 58° WNW 17:38:36 10° SSW
USA 267 3.4 17:29:31 10° SE 17:36:06 82° SW 17:42:42 10° WNW
Cosmos 1626 4.1 17:32:58 10° NNW 17:36:18 34° W 17:39:36 10° SSW
Cosmos 1814 Rocket 4.1 17:31:46 10° NNW 17:37:00 61° ENE 17:42:07 10° SE
SL-4 R/B 2.4 17:33:10 10° WNW 17:37:33 75° SSW 17:42:11 10° ESE
Cosmos 2084 Rocket 4.0 17:36:42 10° NNW 17:40:13 34° NE 17:43:23 12° E
Cosmos 1805 3.2 17:37:58 10° S 17:41:50 89° WSW 17:45:46 10° N
Cosmos 2227 4.2 17:37:11 10° NNW 17:42:48 66° ENE 17:48:22 10° SE
Cosmos 1242 Rocket 3.1 17:39:37 10° SSW 17:43:09 62° WNW 17:46:40 10° N
IRIDIUM 114 4.5 17:39:48 10° SSE 17:44:50 51° E 17:49:53 10° NNE
Okean-O 4.1 17:42:55 12° E 17:45:35 19° ENE 17:48:41 10° NNE
ISS -1.9 17:44:24 10° W 17:47:19 27° SW 17:50:13 10° SSE
CZ-4 R/B 1.8 17:44:11 10° SE 17:48:08 43° ENE 17:52:06 10° N
Cosmos 1697 Rocket 3.9 17:43:06 10° SW 17:48:27 44° NW 17:53:51 10° NNE
BREEZE M DEB (TANK) 4.0 17:44:55 10° SSW 17:50:51 23° SSE 17:53:03 15° ESE
Cosmos 1908 Rocket 3.8 17:49:25 10° SSE 17:53:31 44° E 17:57:39 10° NNE
SL-14 R/B 3.7 17:49:43 10° NNW 17:53:40 68° W 17:57:38 10° S
IRIDIUM 103 4.3 17:48:49 10° SSE 17:53:57 61° E 17:59:06 10° N
OBJECT-B 2.0 17:54:14 16° ENE 17:54:14 16° ENE 17:55:39 10° NNE
Meteor 2-21 4.4 17:48:07 10° S 17:54:05 71° E 18:00:08 10° NNE
MOS 1-B 4.4 17:48:23 10° SSE 17:54:12 89° ENE 18:00:03 10° NNW
Cosmos 1733 3.9 17:51:42 10° SSW 17:55:23 55° WNW 17:59:05 10° N
Cosmos 2360 Rocket 3.4 17:52:05 10° SE 17:55:46 18° E 17:59:28 10° ENE
Cosmos 1809 Rocket 4.5 17:52:39 10° S 17:58:44 89° W 18:04:52 10° N
Cosmos 1766 3.1 17:57:47 10° S 18:01:41 74° E 18:05:38 10° NNE
Cosmos 1782 Rocket 4.3 17:58:01 10° SSE 18:01:48 30° E 18:05:37 10° NNE
Cosmos 1674 Rocket 3.9 17:58:30 10° NNW 18:02:55 70° W 18:07:19 10° S
Meteor 2-10 4.3 17:57:41 10° SSW 18:03:19 80° WNW 18:08:47 10° N
NOSS 7 (E) 4.4 18:01:32 10° NW 18:04:45 78° NE 18:07:50 16° SE
Cosmos 1025 Rocket 3.8 18:01:43 10° N 18:05:33 30° ENE 18:07:56 18° ESE
YAOGAN 1 2.5 18:02:03 10° SSE 18:06:22 89° WSW 18:10:44 10° NNW
ATLAS 2AS CENTAUR R/B 4.4 18:01:36 10° NW 18:07:34 25° N 18:13:18 10° NE
Cosmos 2026 Rocket 4.3 18:02:20 10° SSE 18:07:50 38° E 18:13:23 10° NNE
Cosmos 968 Rocket 3.6 18:03:20 10° S 18:08:26 52° ESE 18:13:30 10° NNE
Okean O Rocket 1.5 18:05:51 10° SSE 18:10:12 83° ENE 18:14:38 10° NNW
IRIDIUM 106 4.3 18:07:00 10° S 18:12:13 86° E 18:17:28 10° N
Lacrosse 4 Rocket 2.3 18:09:50 10° SSE 18:13:14 26° ESE 18:13:56 24° E
Meteor 2-5 Rocket 3.6 18:09:48 10° N 18:15:19 64° ENE 18:20:48 10° SSE
Nadezhda 4 Rocket 4.0 18:09:18 10° S 18:15:38 84° E 18:21:58 10° N
Meteor 1-15 Rocket 4.1 18:11:51 10° S 18:17:22 69° E 18:22:55 10° NNE
CSL-04 Rocket 4.0 18:13:27 15° SE 18:17:30 43° ENE 18:22:37 10° N
Cosmos 2285 Rocket 4.2 18:15:32 10° NNW 18:21:54 76° WSW 18:28:16 10° SSE
USA 186 2.3 18:22:41 36° E 18:23:18 40° ENE 18:26:29 10° N
Cosmos 1726 3.3 18:20:25 10° SSW 18:23:55 44° WNW 18:27:27 10° N
Cosmos 2322 Rocket 2.5 18:18:57 10° S 18:24:18 44° ESE 18:29:42 10° NE
Cosmos 2237 4.4 18:19:30 10° S 18:24:54 45° ESE 18:30:18 10° NE
Landsat 7 4.5 18:25:23 28° E 18:26:50 34° ENE 18:31:04 10° N
Cosmos 1470 2.6 18:24:43 10° S 18:28:30 61° E 18:32:18 10° NNE
CZ-4B R/B 3.9 18:23:31 10° S 18:28:48 56° W 18:34:13 10° NNW
Cosmos 1980 Rocket 3.5 18:25:16 10° WSW 18:30:34 41° NW 18:35:53 10° NNE
Cosmos 1975 Rocket 3.1 18:26:21 10° N 18:30:43 56° ENE 18:33:09 24° SSE
CRYOSAT 2 4.4 18:34:18 15° SSE 18:38:20 60° E 18:43:10 10° N
Cosmos 2292 Rocket 3.6 18:33:38 10° S 18:38:44 84° W 18:42:36 10° N
USA 215 3.7 18:36:54 11° NE 18:43:03 61° NNW 18:49:28 10° W
IRS-1C Rocket 4.1 18:43:42 29° SE 18:46:23 63° ENE 18:51:35 10° N
Cosmos 1844 Rocket 2.6 18:44:35 10° NNW 18:50:18 79° ENE 18:52:59 33° SE
SL-16 R/B 2.2 18:48:51 10° SSW 18:54:31 85° WNW 19:00:15 10° NNE
Landsat 5 3.5 18:50:53 10° NNE 18:55:25 75° ESE 18:59:51 10° S
Cosmos 1092 Rocket 4.0 18:50:50 10° S 18:57:09 85° W 19:03:27 10° N
Resurs 01 Rocket 2.6 19:01:19 33° NE 19:01:19 33° NE 19:04:32 10° N
Cosmos 836 Rocket 4.4 18:56:18 10° NNW 19:01:39 87° ENE 19:03:34 41° SSE
SJ-6B 2.8 19:02:07 55° SSW 19:02:49 73° WSW 19:06:38 10° NNW
Cosmos 2278 Rocket 3.6 19:01:00 10° N 19:05:20 22° NE 19:05:41 22° NE
H-2A R/B 3.4 19:07:12 33° NNE 19:07:12 33° NNE 19:09:37 10° N
Cosmos 1437 Rocket 4.3 19:02:56 10° SW 19:06:23 34° WNW 19:09:51 10° N
Meteor 1-24 Rocket 4.3 19:05:23 10° NNW 19:10:33 53° W 19:15:46 10° S
Resurs 1-3 3.5 19:11:26 71° SSE 19:11:55 89° W 19:16:20 10° NNW
IRS-1A Rocket 4.5 19:15:25 49° ENE 19:15:41 50° ENE 19:21:16 10° N
MetOp-A 4.2 19:17:19 39° N 19:17:19 39° N 19:20:01 10° N
SL-4 R/B 4.1 19:13:05 10° W 19:16:38 23° SW 19:17:51 20° SSW
Cosmos 921 Rocket 4.3 19:12:43 10° N 19:15:35 30° NNE 19:15:35 30° NNE
Cosmos 2084 Rocket 4.4 19:16:03 10° WNW 19:19:36 36° SW 19:19:51 35° SW
Okean-O 3.1 19:20:29 43° SSW 19:21:38 59° WSW 19:26:02 10° NNW
CZ-4 R/B 3.9 19:20:03 10° SW 19:23:14 21° W 19:26:27 10° NW
OBJECT-B 3.6 19:24:56 14° WNW 19:24:56 14° WNW 19:25:40 10° NW
Cosmos 1486 Rocket 3.9 19:18:31 10° SSW 19:23:50 89° ESE 19:29:13 10° NNE
Cosmos 1844 3.8 19:19:14 10° NNW 19:24:47 70° WSW 19:26:12 49° S
IGS 5A 4.3 19:24:37 38° SW 19:25:36 46° W 19:29:36 10° NNW
DNEPR-1 R/B 3.9 19:23:28 10° SW 19:28:14 83° NW 19:30:36 36° NE
S3M 3.8 19:23:34 10° N 19:29:48 66° ENE 19:30:10 65° E
Cosmos 1300 Rocket 4.0 19:30:15 49° WSW 19:31:03 59° WNW 19:35:23 10° N
Cosmos 773 Rocket 4.0 19:25:56 10° NNW 19:31:00 72° NE 19:31:00 72° NE
Meteor 1-21 Rocket 4.2 19:26:24 10° N 19:31:34 64° NE 19:31:34 64° NE
Cosmos 2360 Rocket 2.2 19:33:24 10° SSW 19:39:03 81° WNW 19:44:45 10° NNE
Cosmos 1417 Rocket 4.5 19:44:04 10° NNW 19:50:12 76° W 19:51:03 65° SSW
Lacrosse 4 Rocket 3.1 19:47:46 10° WSW 19:50:17 30° W 19:50:17 30° W
ATLAS 2AS CENTAUR R/B 3.7 19:54:12 10° NW 20:00:44 34° NNE 20:01:35 33° NE
MOS 1 4.4 20:01:33 69° W 20:01:33 69° W 20:07:00 10° NNW
SPOT 1/Viking Rocket 4.2 20:07:53 52° WNW 20:07:53 52° WNW 20:12:06 10° NNW
Cosmos 2322 Rocket 3.5 20:03:09 10° WSW 20:08:26 38° NW 20:13:46 10° NNE
NOSS 3-4 (A) 3.7 20:05:19 10° NW 20:12:04 83° NNE 20:12:04 83° NNE
NOSS 3-4 (C) 3.7 20:05:26 10° NW 20:12:10 83° NNE 20:12:10 83° NNE
Ariane Rocket 4.1 20:16:26 39° NNW 20:16:26 39° NNW 20:19:39 10° NNW
USA 215 4.1 20:24:15 40° NNE 20:25:30 44° N 20:31:36 10° WNW
USA 281 3.7 20:27:40 49° NNE 20:27:40 49° NNE 20:32:45 10° NNW
Resurs 01 Rocket 4.0 20:38:52 20° NW 20:38:52 20° NW 20:40:49 10° NW
Terra 4.2 20:42:43 17° N 20:42:43 17° N 20:43:51 10° N
Cosmos 1943 Rocket 4.1 20:36:35 10° NNW 20:38:59 22° N 20:38:59 22° N
Cosmos 2278 Rocket 3.7 20:44:30 10° NNW 20:47:32 33° NNW 20:47:32 33° NNW
Cosmos 2369 Rocket 4.4 20:56:40 10° N 20:58:48 17° N 20:58:48 17° N
Cosmos 2333 Rocket 4.4 21:18:31 19° N 21:18:31 19° N 21:20:30 10° NNE
Cosmos 2360 Rocket 4.5 21:19:55 10° W 21:23:58 20° NW 21:28:03 10° N
ATLAS 2AS CENTAUR R/B 4.2 21:45:25 10° NW 21:49:00 32° NW 21:49:00 32° NW
